Regional Weather Roundup
Issued by NWS Wakefield, VA

Home | Current Version | Previous Version | Text Only | Print | Product List | Glossary Off
Versions: 1 2 3 4 5 6 7 8 9 10 11 12 13 14 15 16 17 18 19 20 21 22 23 24 25 26 27 28 29 30 31 32 33 34 35 36 37 38 39 40 41 42 43 44 45 46 47 48 49 50

000
ASUS41 KAKQ 290215
RWRAKQ

REGIONAL WEATHER ROUNDUP
NATIONAL WEATHER SERVICE WAKEFIELD VA
1000 PM EDT TUE JUL 28 2015

Note: "fair" indicates few or no clouds below 12,000 feet with no
significant weather and/or obstructions to visibility. * = Denotes
station may not report precipitation (e.g., rain,snow,etc.),
thunder or fog.

VAZ042-051-052>054-056-290300-
NORTHERN VIRGINIA

CITY           SKY/WX    TMP DP  RH WIND       PRES   REMARKS
WASH NATIONAL  PTCLDY    81  74  79 SW6       30.00S
DULLES         PTCLDY    73  71  93 CALM      30.01S
FORT BELVOIR   PTCLDY    75  73  94 SW1       30.00R
QUANTICO       PTCLDY    79  72  79 W6        30.01R
FREDERICKSBRG* MOCLDY    77  77 100 CALM      30.00S FOG
STAFFORD*      MOCLDY    72  71  95 CALM      30.05S FOG
WARRENTON      MOCLDY    73  73 100 CALM      30.02R
CULPEPER*      MOCLDY    73  72  98 CALM      30.02S
MANASSAS*      NOT AVBL
LEESBURG*      PTCLDY    77  73  88 S8        30.02R
WINCHESTER     PTCLDY    77  72  83 CALM      30.02R
FRONT ROYAL*   MOCLDY    77  70  78 CALM      30.00R
LURAY*         MOCLDY    77  72  83 CALM      30.02R
$$

VAZ048-049-060>072-079>083-290300-
CENTRAL AND SOUTH CENTRAL VIRGINIA

CITY           SKY/WX    TMP DP  RH WIND       PRES   REMARKS
RICHMOND       MOCLDY    79  74  84 CALM      30.01R
CHESTERFIELD*  FAIR      75  64  69 NW3       30.03R
PETERSBURG*    MOCLDY    76  76 100 CALM      30.02R FOG
HANOVER        MOCLDY    75  74  96 CALM      30.03R FOG
TAPPAHANNOCK*  FOG       75  72  91 CALM      30.02R VSB 3/4
QUINTON*       FAIR      76  75  96 CALM      30.01R
CHARLOTTSVILLE MOCLDY    73  71  93 CALM      30.02R
GORDONSVILLE*  FAIR      72  72 100 CALM      30.02R FOG
ORANGE*        MOCLDY    73  73 100 CALM      30.03R
LOUISA*        MOCLDY    73  73 100 CALM      30.02R FOG
BUMPASS*       FAIR      73  73  99 SW3       30.02R
FARMVILLE*     CLOUDY    75  75 100 CALM      30.01S
CREWE*         FAIR     N/A N/A N/A CALM      30.01R
FORT PICKETT*  FAIR      74  74  98 NE5       30.01R
CHASE CITY*    FAIR      75  75 100 CALM      30.01S
CLARKSVILLE*   MOCLDY    73  73 100 CALM      30.00R
SOUTH HILL*    CLOUDY    74  74  99 CALM      30.06S
LAWRENCEVILLE* FAIR      75  75 100 CALM      30.00S
EMPORIA*       MOCLDY    77  73  88 CALM      30.02R
$$

VAZ088>098-290300-
SOUTHEAST VIRGINIA

CITY           SKY/WX    TMP DP  RH WIND       PRES   REMARKS
NORFOLK        PTCLDY    80  72  76 S5        30.00R
VIRGINIA BEACH MOCLDY    81  72  74 S9        30.00R
NORFOLK NAVAL  MOCLDY    80  72  76 SE5       30.02R
WEST POINT*    PTCLDY    79  75  87 CALM      30.03R
SALUDA*        MOCLDY    76  74  93 E6        30.01R
NEWPORT NEWS   PTCLDY    75  71  87 CALM      30.01R
LANGLEY AFB    NOT AVBL
FORT EUSTIS    CLOUDY    79  78  96 CALM      29.99R
WILLIAMSBURG*  PTCLDY    81  75  83 CALM      30.02R
HR EXEC AP*    FAIR      75  70  83 CALM      30.03R
FRANKLIN*      MOCLDY    77  73  85 SE3       30.00S
WAKEFIELD      PTCLDY    76  73  91 CALM      30.00R
$$

VAZ020-022-025-037-045-290300-
WEST CENTRAL AND SOUTHWEST VIRGINIA

CITY           SKY/WX    TMP DP  RH WIND       PRES   REMARKS
STAUNTON*      RAIN      76  73  89 SW3       30.07R
WAYNESBORO*    CLOUDY    72  72  99 SW3       30.06R
HOT SPRINGS VA CLOUDY    68  68 100 SE6       30.15R
LYNCHBURG      RAIN      73  73 100 CALM      30.04F FOG
DANVILLE       MOCLDY    75  72  90 CALM      30.01R
SOUTH BOSTON*  MOCLDY    73  72  95 CALM      30.01R
MARTINSVILLE   CLOUDY    75  75 100 CALM      30.05S
ROANOKE        MOCLDY    76  73  91 E7        30.04S
BLACKSBURG     PTCLDY    72  70  93 S5        30.11R
DUBLIN*          N/A     74  71  89 S3        30.10R
MARION*        PTCLDY    74  68  80 NE3       30.12R
HILLSVILLE*    CLOUDY    70  70  99 S8        30.11R
RICHLANDS*     FAIR      76  71  83 CALM      30.10R
WISE*          CLEAR     73  73 100 CALM      30.11R
ABINGDON*      LGT RAIN  75  71  87 N3        30.07R
$$

MDZ021>025-VAZ099-100-290300-
SOUTHERN MARYLAND AND THE DELMARVA PENINSULA

CITY           SKY/WX    TMP DP  RH WIND       PRES   REMARKS
PATUXENT RIVER PTCLDY    78  72  81 S3        30.01R
BAY BRIDGE APT   N/A     81  72  74 S3        29.99S
LEONARDTOWN    PTCLDY    73  70  88 CALM      30.03R
DOVER          CLEAR     78  73  85 S6        29.99R
GEORGETOWN     CLEAR     74  72  93 CALM      30.00S
EASTON         CLEAR     80  77  91 W6        30.03S
CAMBRIDGE      CLEAR     79  73  83 CALM      29.99S
SALISBURY      CLEAR     74  73  97 CALM      30.00R
OCEAN CITY     CLEAR     75  70  84 CALM      30.01R
WALLOPS ISLAND CLEAR     75  73  93 S5        30.01R
ACCOMACK*      PTCLDY   N/A N/A N/A S3        30.02R
$$

NCZ012>017-030>032-290300-
NORTH CENTRAL AND EASTERN NORTH CAROLINA

CITY           SKY/WX    TMP DP  RH WIND       PRES   REMARKS
ROANOKE RAPIDS FAIR      73  70  88 CALM      30.01R
RALEIGH        MOCLDY    79  74  84 E6        29.98F
ELIZABETH CITY MOCLDY    78  70  76 S6        30.00R
AHOSKIE*       PTCLDY    74  67  79 CALM      30.01R
EDENTON*         N/A     79  71  76 S5        30.00R
CURRITUCK*     MOCLDY    78  68  71 CALM      30.01R
KILL DEVIL HLS MOCLDY    78  69  74 CALM      30.00R
MANTEO         MOCLDY    77  70  80 E3        30.01R
CAPE HATTERAS  CLEAR     77  69  76 E5        30.01R
TARBORO*         N/A     76  72  87 E3        30.01R
GOLDSBORO      MOCLDY    81  74  80 SE5       29.97S
WASHINGTON     PTCLDY    76  71  84 E3        30.00S
GREENVILLE     PTCLDY    81  72  74 S3        30.02R
NEW BERN       PTCLDY    77  70  79 S3        30.00R
WILMINGTON     MOCLDY    78  71  79 E5        29.98S
$$

VAZ048-290300-
ELSEWHERE

CITY           SKY/WX    TMP DP  RH WIND       PRES   REMARKS
HARRISBURG PA  PTCLDY    77  71  82 CALM      29.98R
BALTIMORE      PTCLDY    79  71  76 S3        29.98S
ANNAPOLIS      CLEAR     80  71  74 VRB3      29.98S
ANDREWS AFB    PTCLDY    76  72  87 SW7       29.99F
PHILADELPHIA   PTCLDY    82  71  69 SW6       30.00R
HENDERSON NC   MOCLDY    74  72  91 E3        30.01S
GREENSBORO     CLOUDY    76  75  97 N5        30.01R
ROCKY MOUNT    MOCLDY    76  72  87 CALM      29.99R
$$

VAZ100-290300-
MARINE

STATION/POSITION TIME  TEMP    WIND        PRES    WAVE   SWELL
                       AIR SEA DIR/SP/G            HT/PER HT/PER
                 (UTC) (F)     (DEG/KT/KT) (MB)    (FT/S) (FT/S)
BRANDYWINE LGT   0100   78 73  230/ 10/ 10 1015.8R
CAPE MAY NJ      0100   75 81  190/  4/  5 1015.3R
LEWES DE         0100   78 75  190/  2/  3 1015.7R
15NM E FENWICK I 0150   79 79  210/ 10/ 12 1015.9R   3/ 8   2/ 8
OCEAN-CITY-INLET 0100   76 75  220/  7/  8 1014.9R
WACHAPREAGUE VA  0100   81 85  200/  6/  9 1015.9R
GOOSES REEF MD   0200   82 81  200/  6/  8 1016.8R
COVE POINT MD    0100   80     170/  4/  5 1016.3R
SOLOMONS ISLAND  0100      84                N/A
BISHOPS HEAD MD  0100   82 85  240/  4/  5 1014.9R
POTOMAC MD       0200   82 83  210/  6/  6 1014.9R   1
CAMBRIDGE MD     0100   81 83  190/  1/  3 1015.0R
LEWISETTA VA     0100   80 83  180/  3/  4 1015.3R
RAPPAHANNOCK LGT 0100          160/ 10/ 10 1016.0R
STINGRAY PT      0200   82 83  150/ 10/ 10 1016.3R   1/ 2
YORK RVR RNG VA  0100   84     220/  4/  5 1014.8R
YORKTOWN VA      0100   80 84  210/  3/  4 1015.0R
JAMESTOWN VA     0200   81 85  130/  2/  4   N/A
DOMINION TERM VA 0100   83     180/  3/  4 1015.0R
KIPTOPEKE VA     0100      83  170/ 12/ 13   N/A
CHES BAY BRIDGE  0100   81 75  130/  9/ 11 1014.9R
CAPE HENRY VA    0100   79     160/  7/ 10   N/A
CHESAPEAKE LGHT  0100   80     170/ 13/ 15 1016.0S
WILLOUBY STN VA  0100   84      60/  2/  4 1016.2R
CAPE HENRY BUOY  0128      81                N/A     2/ 7
1ST LANDING BUOY 0200      80              1015.9R   1/ 4
CAPE CHARLES BUO 0126      81                N/A     2/11   2/11
OFFSHORE WE BUOY 0111      81                N/A     3/11   2/11
64NM E OF VA BCH 0150   80 81  150/  6/  6 1016.3R   2/ 6   2/ 6
DUCK PIER NC     0100   79 76  150/ 10/ 11 1014.8R
44100 DUCK FRF   0124      81                N/A     2/11   2/11
44056 DUCK FRF   0111      81                N/A     2/11   2/11
OREGON INLET NC  0100   79 86  130/  4/  5 1015.9R
HATTERAS NC      0100   81 84   90/  5/  8 1015.3R
CAPE LOOKOUT NC  0200   81      80/ 12/ 13 1015.3R
$$



USA.gov is the U.S. government's official web portal to all federal, state and local government web resources and services.